Temperature
17 16 16 16 17 17 17 17 16 17 17 17 17 17 17 17 17 17 17 17 18 18 18 18 18 17 17 17 17 17 17 16 16 16 16 16 15 15 15 15 15 15 15 15
16 16 17 17 17 17 17 17 16 17 17 17 17 17 17 17 17 17 17 18 18 18 18 18 18 18 17 17 17 17 17 17 16 16 16 16 15 15 15 15 15 15 15 15
17 17 18 18 17 17 17 16 16 17 17 17 17 17 17 17 17 17 18 18 18 18 18 18 18 18 18 17 17 17 17 17 16 16 16 16 15 15 15 15 15 15 15 15
17 18 18 18 18 18 17 17 17 17 16 16 17 16 16 16 16 16 17 18 18 18 18 18 18 18 18 17 17 17 17 17 16 16 16 16 16 15 15 15 15 15 15 15
18 18 18 18 18 18 17 18 17 17 16 16 16 16 16 16 16 16 17 18 18 19 19 18 18 18 18 18 17 17 17 17 16 16 16 16 16 16 15 15 15 15 15 15
18 18 18 18 18 18 18 17 16 15 15 16 16 16 16 15 16 17 17 18 18 19 19 19 19 18 18 18 17 17 17 17 16 16 16 16 16 16 15 15 15 15 15 14
18 18 18 19 18 18 17 16 16 16 15 16 16 16 16 17 17 17 18 18 19 19 19 19 18 18 18 18 17 17 17 17 17 16 16 16 16 16 15 15 15 15 15 15
17 17 18 19 18 17 17 16 16 16 16 16 16 16 17 18 18 19 19 19 19 19 19 19 19 18 18 18 18 17 17 17 17 17 16 16 16 16 16 15 15 15 15 15
17 17 19 19 19 18 17 16 16 16 16 16 16 16 17 18 17 17 18 18 18 19 19 19 19 19 18 18 18 18 17 17 17 17 17 16 16 16 16 15 15 15 15 14
17 18 18 19 19 18 18 16 15 16 16 17 17 17 17 18 18 17 16 17 18 19 19 19 19 19 18 18 18 18 17 17 17 17 17 16 16 16 16 16 15 15 15 14
18 17 18 18 19 18 17 17 15 14 15 16 17 17 18 18 18 16 16 17 18 19 19 19 19 19 19 18 18 18 18 17 17 17 17 16 16 16 16 15 15 15 15 14
17 16 16 17 18 18 18 17 16 16 16 15 15 17 19 17 17 17 17 18 19 19 19 19 19 19 19 18 18 18 18 17 17 17 17 16 16 16 16 15 15 15 15 14
17 16 16 17 18 18 18 17 16 15 15 15 16 18 18 17 18 18 18 18 19 19 19 19 19 19 19 19 18 18 18 17 17 17 17 16 16 16 16 15 15 15 15 15
18 16 17 18 18 18 18 18 17 16 16 16 16 17 18 18 17 18 18 19 19 19 19 19 19 19 19 19 18 18 18 17 17 17 17 16 16 16 16 15 15 15 15 15
18 17 18 18 18 18 19 18 17 17 17 17 18 18 18 18 18 18 19 19 19 19 19 19 19 19 19 19 19 18 18 18 17 17 17 17 16 16 15 15 15 15 15 15
17 18 18 19 19 18 19 19 18 18 17 17 17 18 18 18 19 18 19 19 19 19 19 19 19 19 19 19 19 19 18 18 17 17 17 17 16 16 16 15 15 15 15 14
16 17 17 17 18 19 19 19 19 18 18 18 18 18 18 18 18 18 19 19 19 20 20 20 20 20 19 19 19 19 18 18 18 17 17 17 16 16 16 16 15 15 15 15
16 16 15 16 18 19 19 19 19 19 18 18 18 18 18 18 19 19 20 20 20 20 20 20 20 20 19 19 19 18 18 18 17 17 17 16 16 16 16 15 15 15 15 15
15 15 14 15 17 17 18 19 19 19 19 18 18 18 18 19 19 19 20 20 21 20 20 20 20 20 19 19 19 18 18 18 17 17 17 16 16 16 16 15 15 15 15 15
14 14 14 14 17 18 19 20 20 19 19 19 19 18 18 18 17 18 20 21 20 20 20 20 20 19 19 19 18 18 18 18 17 17 17 16 16 16 15 15 15 15 15 14
15 14 14 14 16 16 18 19 20 19 19 20 20 20 19 18 19 20 21 21 20 20 20 20 20 19 19 19 18 18 18 18 17 17 16 16 16 15 15 15 15 15 14 14
15 15 14 13 16 17 18 18 18 19 21 21 21 21 20 21 20 20 21 20 20 20 20 19 19 19 19 18 18 18 18 18 17 17 16 16 16 15 15 15 15 14 14 14
15 15 14 15 16 18 18 19 21 21 21 21 21 21 21 21 20 20 20 20 20 20 19 19 19 19 18 18 18 18 17 17 17 16 16 16 16 15 15 15 14 14 14 14
14 14 13 14 15 17 19 20 20 21 21 21 21 21 21 21 20 20 20 20 19 19 19 19 18 18 18 17 17 17 17 17 16 16 16 16 15 15 15 14 14 14 14 13
15 13 14 14 15 17 19 20 21 21 21 21 21 21 21 20 20 20 19 19 19 19 18 18 18 18 17 17 17 17 16 16 16 16 15 15 15 15 14 14 14 14 13 13
13 14 15 16 17 17 19 20 20 21 21 21 21 20 20 20 20 19 19 19 18 18 18 18 17 17 17 17 17 16 16 16 16 16 15 15 15 14 14 14 13 13 13 13
Wind_Speed
4 5 2 2 3 5 4 4 3 1 0 4 4 3 4 5 5 6 6 6 6 6 4 4 4 5 5 4 5 5 5 4 4 3 3 3 2 2 3 6 8 8 9 9
5 2 1 3 5 6 5 5 2 2 2 3 3 2 3 5 6 7 8 8 8 6 4 5 5 5 5 5 5 4 5 5 3 3 2 2 2 2 2 3 7 9 8 8
3 1 3 5 6 5 2 4 3 3 2 4 3 1 3 4 4 5 6 7 7 9 9 7 6 6 5 5 6 5 4 4 3 4 4 3 3 3 3 3 3 6 7 8
2 1 4 5 3 3 1 2 4 4 3 1 1 2 5 4 5 7 8 8 8 8 8 8 7 7 7 6 5 5 5 4 4 5 5 4 3 1 0 1 1 3 6 7
1 2 3 3 2 3 3 3 5 4 3 2 1 1 6 3 7 10 10 10 10 9 9 9 9 8 7 6 5 5 4 4 4 4 5 5 3 2 1 1 2 3 4 6
1 1 1 2 3 4 6 6 6 5 3 1 2 3 6 5 10 9 11 11 11 10 9 9 7 6 5 5 5 5 5 4 3 4 4 5 5 4 3 1 1 2 2 3
4 2 1 3 5 3 5 5 3 3 2 3 2 3 8 8 8 11 13 14 12 11 10 9 9 8 7 7 6 6 6 4 4 4 4 5 5 5 5 3 2 1 1 1
2 2 2 2 4 5 3 5 4 2 2 3 1 5 8 6 5 7 9 10 11 11 11 11 11 10 9 8 8 7 7 5 5 5 5 4 5 4 3 3 3 3 2 1
4 2 2 1 2 7 5 3 4 4 1 2 4 6 8 2 1 3 6 8 10 11 12 11 10 9 9 9 9 9 8 6 5 5 5 4 4 4 4 3 3 2 2 1
7 2 1 0 4 3 4 6 4 3 2 2 5 4 4 5 3 2 5 8 9 10 9 9 9 9 9 8 7 7 7 7 6 5 5 4 4 4 4 4 4 3 2 2
4 4 1 1 3 4 4 4 4 3 3 3 2 6 5 6 4 6 8 8 9 10 10 10 9 8 7 6 6 7 6 6 5 6 5 5 4 4 4 4 4 3 3 3
4 5 1 4 3 3 4 5 6 3 2 3 2 6 6 4 4 6 6 7 7 8 9 8 8 8 7 7 7 7 6 6 6 5 5 5 4 5 4 4 4 3 4 4
7 5 3 4 4 0 2 3 4 4 4 3 2 6 4 3 1 3 5 6 6 7 7 6 7 8 8 8 7 7 7 6 5 5 5 5 5 5 5 4 4 3 4 4
6 5 6 6 6 5 4 4 5 5 3 3 6 7 8 5 2 2 4 5 6 7 7 7 7 8 8 8 8 8 7 6 6 6 6 6 6 6 5 5 4 4 4 5
5 4 5 5 4 4 5 6 7 7 7 7 7 6 9 6 5 4 4 5 6 6 7 8 9 8 7 7 7 7 6 6 7 6 6 6 5 4 4 4 4 4 4 5
4 4 2 2 2 3 4 6 7 7 6 6 5 7 7 4 2 3 5 7 7 7 8 8 8 8 8 8 8 7 7 7 7 7 7 5 5 5 5 5 4 4 4 3
4 6 4 2 3 1 4 6 7 6 6 7 8 8 3 2 4 5 6 7 8 8 8 9 9 10 9 9 9 9 8 7 7 7 6 6 6 6 5 5 5 5 4 4
7 6 4 2 2 4 8 4 6 6 5 7 6 6 5 5 3 3 4 7 7 7 7 8 8 8 7 7 7 7 6 7 7 7 6 6 6 6 5 5 5 5 4 4
5 8 5 4 2 6 8 4 5 5 4 5 6 5 2 2 3 2 3 5 7 7 6 7 7 7 6 7 7 7 7 6 7 7 7 7 7 7 6 6 6 5 4 4
5 5 6 4 4 6 8 4 3 4 4 5 6 5 5 5 2 4 2 4 4 4 4 4 4 5 5 6 7 8 7 7 8 8 8 7 7 8 8 7 6 4 4 5
4 4 5 5 5 8 8 3 5 4 7 4 6 6 7 7 6 3 2 2 3 3 3 4 5 5 5 6 8 8 7 8 8 6 6 6 7 7 7 6 4 4 4 4
8 6 6 6 4 8 4 5 8 8 4 3 5 6 7 5 2 2 2 3 3 3 3 4 5 4 4 6 8 7 7 6 4 5 6 6 6 6 5 6 5 4 5 5
8 9 7 9 8 5 3 6 5 3 4 4 4 5 6 5 3 2 2 2 3 3 3 3 4 4 3 5 7 7 5 4 6 6 5 5 5 4 5 6 6 4 4 4
4 3 5 4 7 6 5 4 3 3 4 3 4 5 6 5 4 3 3 2 2 2 3 3 4 4 3 3 4 5 4 6 6 6 5 5 5 4 4 4 5 5 5 5
6 6 4 4 6 5 5 3 3 2 2 3 3 4 6 6 4 4 3 3 3 2 2 3 4 4 3 3 3 3 5 6 6 6 5 4 4 4 4 4 4 6 6 7
6 8 8 7 8 6 5 3 3 4 3 4 5 3 3 5 5 4 3 3 3 3 3 3 3 2 2 2 2 3 4 6 7 5 4 4 4 4 3 3 1 3 4 6
Wind_Direction
37 66 100 168 144 138 131 117 99 36 124 117 136 164 195 180 171 179 179 180 189 198 194 167 158 146 137 133 129 134 130 126 117 98 88 76 51 26 29 36 44 50 56 58
49 47 215 133 117 110 109 112 103 45 37 110 132 183 207 200 197 195 192 194 195 189 175 172 168 163 160 157 149 146 150 150 144 119 115 113 105 64 38 30 40 40 50 55
113 205 125 113 117 113 107 151 156 144 64 54 81 331 219 221 201 203 205 200 195 190 186 184 180 182 172 172 172 167 168 162 149 127 106 82 59 41 29 19 15 20 46 57
77 118 124 115 121 126 121 171 142 127 104 34 93 257 257 212 208 212 212 204 200 196 187 184 184 184 187 189 175 165 164 161 153 144 139 134 126 116 359 346 10 22 44 55
27 140 127 132 165 130 145 113 108 103 98 57 32 188 277 196 217 222 214 209 204 195 187 189 190 190 188 179 169 164 154 155 157 154 151 136 127 133 103 55 52 31 29 44
66 155 153 146 89 113 121 83 63 53 63 349 219 187 272 218 215 215 209 206 203 194 190 191 188 176 176 168 162 160 156 162 163 158 154 153 152 152 135 109 78 32 18 23
16 9 25 119 93 69 92 93 54 12 8 266 221 212 254 241 218 208 204 203 198 191 186 185 181 180 181 177 174 171 167 177 178 169 171 170 166 167 171 172 159 140 60 20
93 312 239 169 156 155 144 131 150 185 238 288 281 246 260 262 239 215 201 194 187 188 189 190 190 187 186 183 180 178 180 187 185 181 183 177 170 170 180 180 169 168 180 196
164 248 297 181 148 135 137 170 170 137 170 290 283 283 300 315 341 189 179 177 186 189 190 192 189 188 187 186 190 188 186 188 190 187 178 177 175 176 183 178 167 171 184 172
150 157 291 132 88 54 141 144 107 113 145 297 306 293 275 291 278 191 182 187 191 186 185 187 185 188 190 189 190 188 187 189 187 182 182 183 185 184 178 165 166 172 178 153
132 134 349 71 176 176 123 115 117 120 157 158 303 288 243 249 237 204 200 193 186 182 184 186 185 185 182 178 180 187 188 183 182 184 184 178 184 178 169 171 178 179 176 161
138 119 186 255 256 182 172 171 153 152 211 177 195 273 288 270 240 198 196 190 184 182 182 180 177 169 171 180 187 192 189 188 190 183 179 184 178 169 171 180 186 182 175 169
139 115 79 358 351 50 193 180 160 133 122 157 189 271 311 356 46 185 182 179 176 173 172 168 169 176 181 188 191 192 192 193 185 173 172 175 176 178 185 188 182 179 175 170
122 123 161 193 221 201 214 193 166 144 161 210 228 259 301 314 290 225 189 176 171 173 173 174 179 185 189 193 193 192 194 185 175 171 172 179 187 190 188 181 174 172 167 163
116 156 204 225 229 197 215 211 186 188 194 201 238 245 265 265 243 218 184 166 161 173 181 186 189 191 193 194 194 193 191 181 174 171 179 191 188 178 168 166 169 165 164 169
117 151 164 285 251 214 240 233 204 209 206 217 250 269 259 259 200 180 174 172 182 194 197 196 194 193 195 197 196 192 190 184 174 179 190 185 169 165 169 171 164 160 165 161
142 136 133 264 310 45 280 236 199 203 203 187 215 240 263 238 210 202 191 186 196 201 201 196 196 199 201 199 193 192 191 176 175 183 183 175 172 172 177 171 160 169 175 165
142 133 136 150 69 241 248 255 193 198 230 213 223 239 232 219 217 204 187 188 201 200 194 196 197 199 200 190 187 181 166 168 177 181 181 178 175 175 170 162 172 180 172 173
142 136 127 134 192 276 293 263 178 179 259 220 212 234 212 145 88 343 218 191 198 200 195 195 192 187 182 179 174 161 162 168 176 186 191 189 182 178 171 177 186 184 172 180
77 107 123 135 165 233 251 256 175 126 277 243 195 199 174 132 119 261 243 189 189 179 174 170 160 152 161 172 160 159 170 177 195 201 197 190 184 182 184 188 185 175 175 187
101 97 140 165 205 253 252 247 130 156 239 231 186 183 170 182 196 210 175 157 160 155 153 148 145 158 174 163 156 167 178 201 209 193 180 178 184 187 186 182 177 169 167 166
170 163 179 156 188 250 245 150 176 213 221 186 182 177 176 185 168 146 134 126 123 121 121 137 146 161 160 156 161 175 201 209 176 163 170 179 181 183 180 172 174 169 165 170
190 188 184 187 210 239 231 216 239 202 195 200 183 181 161 154 153 145 137 128 119 119 128 138 145 147 148 164 172 188 206 168 154 159 173 178 174 178 171 171 173 170 172 181
240 159 150 223 259 256 258 250 255 208 204 195 171 157 151 150 148 141 135 129 121 116 128 133 131 139 164 182 184 189 168 153 155 166 175 172 171 175 173 174 178 180 187 194
204 163 167 229 264 288 280 239 230 188 155 127 119 140 152 142 143 149 147 148 149 136 132 136 146 161 182 179 184 173 155 154 158 165 169 170 173 174 179 187 198 200 207 203
193 176 175 216 220 199 235 241 186 159 163 152 134 118 123 140 149 140 145 154 151 147 137 131 141 157 170 163 175 176 167 162 159 162 169 173 174 175 177 181 216 242 230 228
Height
1516 1521 1525 1525 1524 1526 1529 1533 1537 1535 1532 1534 1537 1539 1538 1538 1540 1541 1543 1544 1546 1548 1551 1553 1554 1556 1558 1559 1560 1561 1562 1562 1563 1563 1563 1563 1562 1562 1562 1561 1560 1560 1559 1558
1522 1526 1522 1521 1522 1525 1529 1535 1537 1536 1533 1534 1538 1539 1538 1538 1539 1540 1541 1543 1545 1548 1550 1552 1554 1556 1558 1559 1560 1561 1562 1563 1563 1564 1564 1564 1563 1563 1563 1562 1562 1561 1560 1559
1524 1524 1521 1522 1525 1529 1532 1535 1537 1538 1536 1535 1539 1543 1540 1537 1538 1539 1541 1542 1544 1546 1548 1551 1553 1555 1557 1559 1560 1562 1563 1563 1564 1564 1564 1564 1564 1564 1563 1563 1562 1562 1561 1560
1523 1522 1523 1525 1527 1528 1536 1531 1533 1536 1542 1547 1544 1553 1541 1537 1537 1537 1538 1540 1542 1545 1547 1550 1552 1554 1556 1559 1561 1562 1563 1564 1564 1564 1565 1565 1565 1564 1564 1564 1563 1563 1562 1561
1525 1523 1524 1527 1527 1527 1532 1530 1533 1537 1543 1548 1547 1552 1545 1537 1537 1534 1534 1536 1539 1542 1545 1548 1550 1553 1556 1558 1560 1562 1563 1563 1564 1565 1565 1565 1565 1565 1565 1564 1564 1563 1563 1562
1523 1522 1523 1524 1525 1526 1530 1534 1538 1542 1547 1555 1548 1552 1547 1538 1531 1528 1530 1532 1535 1539 1543 1546 1549 1552 1554 1557 1559 1560 1562 1563 1564 1564 1565 1565 1565 1565 1565 1564 1564 1564 1564 1563
1528 1525 1523 1524 1528 1530 1532 1543 1555 1556 1560 1557 1546 1548 1541 1524 1521 1521 1523 1527 1531 1536 1539 1543 1546 1549 1552 1554 1557 1559 1560 1562 1563 1564 1564 1564 1565 1565 1565 1565 1564 1564 1564 1564
1535 1536 1525 1524 1526 1531 1534 1540 1554 1561 1561 1556 1547 1548 1530 1517 1516 1516 1519 1523 1528 1532 1536 1539 1543 1546 1549 1552 1555 1557 1559 1560 1562 1563 1563 1564 1564 1564 1564 1564 1564 1564 1564 1564
1534 1535 1523 1522 1523 1527 1536 1540 1540 1550 1552 1556 1550 1540 1524 1514 1514 1514 1517 1520 1524 1528 1532 1536 1540 1544 1547 1550 1552 1555 1557 1559 1560 1561 1562 1563 1563 1564 1564 1564 1564 1564 1564 1564
1524 1532 1526 1523 1524 1527 1529 1535 1544 1550 1557 1559 1550 1542 1535 1519 1516 1516 1517 1518 1521 1525 1529 1533 1537 1541 1544 1547 1550 1553 1555 1557 1559 1560 1561 1561 1562 1563 1563 1563 1563 1563 1564 1564
1520 1530 1531 1527 1528 1530 1533 1536 1541 1549 1551 1557 1556 1545 1519 1516 1514 1514 1515 1516 1519 1522 1526 1530 1534 1538 1542 1545 1548 1551 1553 1555 1556 1558 1559 1560 1561 1561 1562 1562 1562 1562 1563 1563
1519 1530 1536 1530 1524 1523 1526 1530 1538 1547 1549 1551 1555 1545 1513 1512 1511 1512 1513 1515 1518 1521 1525 1529 1533 1536 1540 1543 1546 1548 1550 1553 1554 1556 1557 1558 1559 1559 1560 1560 1561 1561 1561 1562
1518 1529 1540 1539 1535 1528 1527 1528 1531 1537 1545 1552 1552 1539 1512 1511 1510 1511 1512 1514 1517 1520 1524 1527 1531 1534 1537 1540 1543 1546 1548 1550 1552 1554 1555 1556 1557 1557 1558 1559 1559 1560 1560 1561
1512 1525 1534 1539 1534 1527 1527 1526 1529 1534 1544 1546 1542 1532 1517 1512 1511 1511 1512 1513 1516 1519 1522 1525 1528 1531 1535 1538 1541 1543 1546 1548 1550 1551 1553 1554 1555 1555 1556 1557 1558 1558 1559 1559
1511 1522 1522 1522 1520 1520 1521 1522 1525 1529 1531 1536 1529 1525 1516 1511 1510 1509 1511 1513 1515 1517 1520 1522 1525 1529 1532 1535 1538 1541 1543 1545 1547 1549 1550 1551 1553 1554 1554 1555 1556 1557 1557 1558
1511 1518 1521 1521 1517 1518 1520 1518 1520 1522 1523 1525 1524 1521 1508 1508 1508 1508 1510 1511 1513 1515 1517 1520 1523 1526 1529 1532 1535 1538 1540 1542 1544 1546 1548 1549 1550 1551 1552 1553 1554 1555 1556 1557
1513 1518 1525 1528 1521 1519 1524 1514 1514 1515 1514 1516 1520 1513 1506 1507 1506 1506 1507 1509 1511 1513 1515 1518 1520 1523 1526 1529 1532 1534 1537 1539 1542 1543 1545 1546 1548 1549 1550 1551 1552 1553 1554 1555
1512 1518 1526 1530 1526 1532 1518 1504 1505 1508 1508 1507 1507 1505 1504 1504 1504 1505 1506 1507 1509 1511 1513 1516 1518 1521 1524 1527 1529 1532 1534 1536 1538 1540 1542 1544 1545 1547 1548 1549 1550 1551 1552 1553
1506 1515 1527 1533 1533 1527 1513 1503 1503 1506 1506 1502 1503 1502 1502 1503 1504 1505 1505 1506 1507 1510 1511 1514 1516 1519 1522 1524 1527 1529 1531 1533 1535 1537 1539 1541 1543 1544 1545 1546 1547 1549 1550 1550
1508 1511 1523 1531 1530 1531 1512 1499 1498 1503 1508 1498 1498 1499 1500 1502 1508 1506 1504 1505 1506 1509 1511 1513 1515 1517 1520 1522 1524 1526 1528 1530 1532 1534 1536 1538 1540 1541 1542 1544 1545 1546 1547 1548
1514 1518 1523 1528 1528 1519 1501 1496 1499 1512 1507 1494 1494 1496 1498 1499 1501 1502 1503 1504 1506 1507 1509 1511 1513 1515 1517 1520 1522 1523 1525 1527 1529 1532 1534 1535 1537 1538 1539 1541 1542 1543 1544 1545
1510 1517 1521 1525 1526 1519 1494 1495 1499 1497 1491 1491 1492 1494 1496 1497 1499 1500 1502 1503 1505 1506 1508 1509 1511 1513 1515 1517 1519 1521 1522 1525 1527 1529 1531 1532 1534 1535 1536 1538 1539 1539 1540 1541
1501 1501 1504 1507 1505 1494 1491 1491 1490 1490 1489 1490 1491 1492 1494 1496 1498 1499 1501 1502 1504 1505 1506 1508 1509 1511 1513 1515 1517 1518 1520 1522 1524 1526 1527 1529 1530 1532 1533 1534 1535 1536 1536 1537
1495 1494 1497 1499 1493 1489 1488 1488 1488 1488 1488 1489 1490 1492 1493 1495 1497 1499 1500 1501 1503 1504 1505 1507 1508 1510 1511 1513 1515 1516 1518 1520 1521 1523 1524 1525 1526 1528 1529 1530 1531 1532 1532 1533
1488 1491 1494 1494 1489 1487 1485 1485 1486 1486 1487 1488 1490 1491 1493 1495 1496 1498 1499 1500 1502 1503 1504 1505 1507 1508 1509 1511 1512 1514 1516 1517 1518 1519 1521 1522 1523 1524 1525 1526 1527 1528 1529 1530
1483 1485 1489 1488 1483 1484 1483 1483 1484 1485 1486 1487 1489 1491 1493 1494 1495 1497 1498 1499 1500 1502 1503 1504 1505 1506 1508 1509 1510 1512 1513 1514 1515 1516 1517 1518 1519 1520 1521 1522 1523 1524 1525 1525